User: anonymous   Login
Location: Berville
(49.1893°N, 2.0748°E)
Time: 22:09:20
(UTC+00:00)
Language:

COSMOS 2251 DEB - Orbit

View from above orbital plane
View from above orbital plane
View from above satellite
View from above satellite

Ground track
Ground track

The orbit data is extracted from the following two-line orbital elements,

1 35453U 93036AKX 24050.58402954  .00004017  00000-0  14475-2 0  9994
2 35453  74.0115 157.1437 0074737  82.4950 278.4684 14.32430175767946
Epoch (UTC): 19 February 2024 14:01:00
Eccentricity: 0.0074737
inclination: 74.0115°
perigee height: 730 km
apogee height: 837 km
right ascension of ascending node: 157.1437°
argument of perigee: 82.4950°
revolutions per day: 14.32430175
mean anomaly at epoch: 278.4684°
orbit number at epoch: 76794

The dashed part of the orbit path shows where the satellite is in the earth's shadow,  

DLR